This is the latest recevied weather packets stored in our database for station/object OK3MS-5. If no packets are shown the sender has not sent any weather packets the latest 10 day(s).
| Time | Temp. | Humidity | Pressure | Rain* | Wind** | Luminosity | Snow |
|---|---|---|---|---|---|---|---|
| 1787466304 | 12.78° C | 87% | 1022.3 hPa | 0 mm | - | 118 W/m² | - |
| 1787466002 | 12.22° C | 88% | 1022.3 hPa | 0 mm | - | 100 W/m² | - |
| 1787465702 | 12.22° C | 88% | 1022.4 hPa | 0 mm | - | 51 W/m² | - |
| 1787465403 | 11.67° C | 89% | 1022.3 hPa | 0 mm | - | 83 W/m² | - |
| 1787465104 | 11.67° C | 89% | 1022.4 hPa | 0 mm | - | 81 W/m² | - |
| 1787464803 | 11.67° C | 88% | 1022.5 hPa | 0 mm | - | 56 W/m² | - |
| 1787464502 | 11.11° C | 90% | 1022.6 hPa | 0 mm | - | 57 W/m² | - |
| 1787464203 | 11.11° C | 91% | 1022.5 hPa | 0 mm | - | 44 W/m² | - |
| 1787463903 | 10.56° C | 92% | 1022.6 hPa | 0 mm | - | 43 W/m² | - |
| 1787463602 | 10.56° C | 92% | 1022.7 hPa | 0 mm | - | 42 W/m² | - |
| 1787463302 | 10.56° C | 92% | 1022.6 hPa | 0 mm | - | 41 W/m² | - |
| 1787463004 | 10.56° C | 93% | 1022.6 hPa | 0 mm | - | 40 W/m² | - |
| 1787462703 | 10.56° C | 93% | 1022.5 hPa | 0 mm | - | 38 W/m² | - |
| 1787462405 | 11.11° C | 92% | 1022.4 hPa | 0 mm | - | 37 W/m² | - |
| 1787462103 | 10.56° C | 97% | 1022.6 hPa | 0 mm | - | 35 W/m² | - |
| 1787461802 | 10° C | 99% | 1022.7 hPa | 0 mm | - | 33 W/m² | - |
| 1787461503 | 9.44° C | 99% | 1022.7 hPa | 0 mm | - | 31 W/m² | - |
| 1787461203 | 9.44° C | 99% | 1022.6 hPa | 0 mm | - | 29 W/m² | - |
| 1787460907 | 8.89° C | 99% | 1022.8 hPa | 0 mm | - | 27 W/m² | - |
| 1787460603 | 8.33° C | 99% | 1023 hPa | 0 mm | - | 24 W/m² | - |
| 1787460306 | 8.33° C | 99% | 1022.9 hPa | 0 mm | - | 22 W/m² | - |
| 1787460003 | 8.33° C | 99% | 1022.9 hPa | 0 mm | - | 19 W/m² | - |
| 1787459707 | 7.78° C | 99% | 1022.8 hPa | 0 mm | - | 17 W/m² | - |
| 1787459404 | 7.78° C | 99% | 1022.8 hPa | 0 mm | - | 14 W/m² | - |
| 1787459109 | 7.78° C | 99% | 1022.8 hPa | 0 mm | - | 11 W/m² | - |
* Rain latest hour (hover to see other rain measurements)
** Current wind speed in m/s (hover to see current wind gust speed)